Regional Weather Roundup
Issued by NWS Green Bay, WI

Home | Current Version | Previous Version | Text Only | Print | Product List | Glossary On
Versions: 1 2 3 4 5 6 7 8 9 10 11 12 13 14 15 16 17 18 19 20 21 22 23 24 25 26 27 28 29 30 31 32 33 34 35 36 37 38 39 40 41 42 43 44 45 46 47 48 49 50
000
ASUS43 KGRB 201959
RWRGRB

NORTH-CENTRAL AND NORTHEAST WISCONSIN REGIONAL WEATHER ROUNDUP
NATIONAL WEATHER SERVICE GREEN BAY WI
300 PM CDT SAT SEP 20 2014

WIZ005-009-010>012-018-019-202100-
NORTH CENTRAL WISCONSIN

CITY           SKY/WX    TMP DP  RH WIND       PRES   REMARKS
IRONWOOD       PTSUNNY   64  55  72 NW16      29.70R
MANITOWISH WTR NOT AVBL
ARBOR VITAE    NOT AVBL
EAGLE RIVER    NOT AVBL
LAND O LAKES   NOT AVBL
RHINELANDER    MOSUNNY   70  56  61 VRB6      29.72S
PHILLIPS       NOT AVBL
ANTIGO         NOT AVBL
TOMAHAWK       NOT AVBL
MERRILL        NOT AVBL
$$

WIZ013-073-202100-
NORTHEAST WISCONSIN

CITY           SKY/WX    TMP DP  RH WIND       PRES   REMARKS
IRON MOUNTAIN  MOSUNNY   73  53  49 NW17G31   29.66R
MARINETTE      CLOUDY    73  63  68 SW8G17    29.63S
$$

WIZ017-030-035>037-045-202100-
CENTRAL WISCONSIN

CITY           SKY/WX    TMP DP  RH WIND       PRES   REMARKS
MEDFORD        NOT AVBL
WAUSAU         PTSUNNY   76  57  51 W15G25    29.69S
MOSINEE        MOSUNNY   73  61  64 W12       29.72S
MARSHFIELD     MOSUNNY   74  57  55 NW16      29.74R
WISC RAPIDS    MOSUNNY   77  59  53 W15G22    29.74S
STEVENS POINT  NOT AVBL
WAUPACA        NOT AVBL
SHAWANO        NOT AVBL
CLINTONVILLE   NOT AVBL
$$

WIZ038-039-048-051-202100-
FOX VALLEY

CITY           SKY/WX    TMP DP  RH WIND       PRES   REMARKS
NWS GREEN BAY  CLOUDY    72  64  76 SW12G17   29.69F
APPLETON       PTSUNNY   72  63  73 SW15      29.72F
OSHKOSH        CLOUDY    70  64  81 W6        29.72F
FOND DU LAC    CLOUDY    69  65  86 SW6       29.73F
$$

WIZ022-050-052-202100-
EAST CENTRAL WISCONSIN

CITY           SKY/WX    TMP DP  RH WIND       PRES   REMARKS
STURGEON BAY   CLOUDY    70  63  78 SW16      29.68R
MANITOWOC      NOT AVBL
SHEBOYGAN      LGT RAIN  71  63  75 W16G23    29.74S
$$

LMZ563-521-522-541>543-202100-
LAKESHORE

STATION/POSITION TIME  TEMP    WIND        PRES    VSBY  WAVE
                       AIR SEA DIR/SP/G                  HT/PER
                 (UTC) (F)     (DEG/KT/KT) (MB)    (MI)  (FT/S)
SHEBOYGAN LKSHOR 1900   74 55  240/ 15/ 18 1006.9F
KEWAUNEE LKSHORE 1900   72     240/ 10/ 14 1004.7R
NORTHPORT PIER   1900   73     200/  4/ 11 1003.0F
N MID LAKE BUOY  1900   60 58  220/ 17/ 21 1003.0F         6/ 7
S GREEN BAY BUOY 1900   65     VRB 14/ 16  1005.6
CHAMBERS ISLAND  1900   69     190/  5/ 11 1003.7S
MENOMINEE LKSHOR 1900   73     210/ 10/ 13 1004.3F
$$



USA.gov is the U.S. government's official web portal to all federal, state and local government web resources and services.